User: anonymous   Login
Location: ScottNC Observatory
(36.0892°N, 80.4832°W)
Time: 14:56:33
(UTC-05:00)
Language:

SPROUT - Orbit

View from above orbital plane
View from above orbital plane
View from above satellite
View from above satellite

Ground track
Ground track

The orbit data is extracted from the following two-line orbital elements,

1 39770U 14029E   19323.21377100  .00000785  00000-0  92691-4 0  9992
2 39770  97.8922  65.5778 0007991 307.0636  52.9846 14.87508294297655
Epoch (UTC): 19 November 2019 05:07:49
Eccentricity: 0.0007991
inclination: 97.8922°
perigee height: 600 km
apogee height: 611 km
right ascension of ascending node: 65.5778°
argument of perigee: 307.0636°
revolutions per day: 14.87508294
mean anomaly at epoch: 52.9846°
orbit number at epoch: 29765

The dashed part of the orbit path shows where the satellite is in the earth's shadow,  

DLR